K3RTA-2 Weather Reports


Display with metric or nautical units.
time (UTC)temp
F
wind
direction
speed
MPH
gust
MPH
rain 1hr
in
rain 24hr
in
rain mn
in
humidity
%
barometer
mb
20260905093504 72 26 0.0 0.0 0.00 0.00 0.00 97 1009.6
20260905093004 72 26 0.0 0.0 0.00 0.00 0.00 97 1009.6
20260905092504 72 26 0.0 0.0 0.00 0.00 0.00 97 1009.6
20260905092004 72 26 0.0 0.0 0.00 0.00 0.00 97 1009.6
20260905091504 72 26 0.0 0.0 0.00 0.00 0.00 97 1009.7
20260905091004 73 26 0.0 0.0 0.00 0.00 0.00 97 1009.7
20260905090503 73 26 0.0 0.0 0.00 0.00 0.00 97 1009.6
20260905090004 73 26 0.0 0.0 0.00 0.00 0.00 97 1009.7
20260905085504 73 26 0.0 0.0 0.00 0.00 0.00 97 1009.6
20260905085004 73 26 0.0 0.0 0.00 0.00 0.00 97 1009.5
20260905084504 73 26 0.0 0.0 0.00 0.00 0.00 97 1009.5
20260905084004 73 26 0.0 0.0 0.00 0.00 0.00 97 1009.5
20260905083504 73 26 0.0 0.0 0.00 0.00 0.00 96 1009.5
20260905082004 74 25 0.0 0.0 0.00 0.00 0.00 96 1009.7
20260905081504 74 25 0.0 0.0 0.00 0.00 0.00 96 1009.6
20260905081005 74 25 0.0 0.0 0.00 0.00 0.00 96 1009.6
20260905080505 74 25 0.0 0.0 0.00 0.00 0.00 96 1009.6
20260905080004 74 25 0.0 0.0 0.00 0.00 0.00 96 1009.7
20260905075505 74 25 0.0 0.0 0.00 0.00 0.00 96 1009.7
20260905075004 74 25 0.0 0.0 0.00 0.00 0.00 96 1009.8
20260905074504 74 25 0.0 0.0 0.00 0.00 0.00 96 1009.7
20260905074004 75 25 0.0 0.0 0.00 0.00 0.00 96 1009.7
20260905072504 75 25 0.0 1.0 0.00 0.01 0.00 95 1009.8
20260905072004 75 25 0.0 2.0 0.00 0.01 0.00 95 1009.9
20260905070503 76 20 1.0 5.0 0.00 0.02 0.00 95 1010.1
20260905065504 76 24 2.0 8.0 0.00 0.04 0.00 94 1010.2
20260905065005 76 25 0.0 3.0 0.00 0.05 0.00 94 1010.1
20260905064505 76 350 1.0 3.0 0.00 0.07 0.00 94 1010.0
20260905063504 76 313 0.0 2.0 0.00 0.11 0.00 94 1010.0
20260905063003 76 25 0.0 2.0 0.00 0.12 0.00 94 1010.1
20260905062504 76 55 0.0 3.0 0.00 0.13 0.00 94 1010.2
20260905062004 76 311 1.0 3.0 0.00 0.14 0.00 94 1010.2
20260905061504 76 62 1.0 2.0 0.00 0.14 0.00 94 1010.2
20260905061004 76 121 0.0 2.0 0.00 0.15 0.00 94 1010.3
20260905060504 76 50 0.0 1.0 0.00 0.15 0.00 94 1010.3
20260905060004 76 49 0.0 1.0 0.00 0.16 0.00 95 1010.2
20260905055504 76 96 0.0 1.0 0.00 0.20 0.00 95 1010.2
20260905055003 77 59 0.0 1.0 0.00 0.26 0.00 95 1010.2
20260905054004 77 13 0.0 2.0 0.00 0.53 0.00 95 1010.3
20260905053505 77 101 0.0 2.0 0.00 0.69 0.00 95 1010.3
20260905053005 76 71 0.0 2.0 0.00 0.69 0.00 95 1010.4
20260905052504 76 111 0.0 3.0 0.00 0.69 0.00 95 1010.4
20260905052004 76 96 0.0 3.0 0.00 0.69 0.00 95 1010.4
20260905051504 76 128 0.0 2.0 0.00 0.69 0.00 95 1010.4
20260905051004 76 104 0.0 1.0 0.00 0.69 0.00 95 1010.5
20260905050504 76 139 0.0 1.0 0.00 0.69 0.00 95 1010.7
20260905050004 76 57 0.0 2.0 0.00 0.69 0.00 95 1010.7
20260905045504 76 99 0.0 2.0 0.00 0.69 0.00 95 1010.8
20260905044504 76 107 0.0 1.0 0.00 0.69 0.00 95 1010.9
20260905044004 76 114 0.0 1.0 0.00 0.69 0.00 95 1010.9
20260905043505 76 158 0.0 1.0 0.00 0.69 0.00 95 1010.9
20260905043004 76 145 0.0 1.0 0.00 0.69 0.00 95 1010.9
20260905042504 75 159 0.0 2.0 0.00 0.69 0.00 95 1010.8
20260905042004 75 171 0.0 2.0 0.00 0.69 0.00 95 1010.9
20260905041504 75 101 0.0 1.0 0.00 0.69 0.00 95 1010.9
20260905041004 75 101 0.0 1.0 0.00 0.69 0.00 95 1011.0
20260905040504 75 101 0.0 1.0 0.00 0.69 0.00 95 1010.9
20260905035504 75 101 0.0 0.0 0.00 0.69 0.00 95 1011.0
20260905035004 75 101 0.0 0.0 0.00 0.69 0.00 95 1011.0
20260905034504 75 101 0.0 0.0 0.00 0.69 0.00 95 1011.1
20260905034005 75 101 0.0 0.0 0.00 0.69 0.00 95 1011.0
20260905033003 75 101 0.0 1.0 0.00 0.69 0.00 95 1011.0
20260905032504 75 101 0.0 1.0 0.00 0.69 0.00 95 1011.2
20260905032004 75 101 0.0 1.0 0.00 0.69 0.00 95 1011.3
20260905031504 75 101 0.0 1.0 0.00 0.69 0.00 95 1011.3
20260905031004 76 101 0.0 0.0 0.00 0.69 0.00 95 1011.4
20260905030004 76 101 0.0 0.0 0.00 0.69 0.00 95 1011.4
20260905025004 76 101 0.0 0.0 0.00 0.69 0.00 95 1011.5
20260905024504 76 101 0.0 0.0 0.00 0.69 0.00 95 1011.5
20260905024004 76 101 0.0 0.0 0.00 0.69 0.00 95 1011.5
20260905023504 76 101 0.0 0.0 0.00 0.69 0.00 95 1011.4
20260905023004 76 101 0.0 1.0 0.00 0.69 0.00 94 1011.5
20260905022504 76 101 0.0 1.0 0.00 0.69 0.00 94 1011.4
20260905022004 76 101 0.0 0.0 0.00 0.69 0.00 94 1011.4
20260905021504 76 101 0.0 0.0 0.00 0.69 0.00 94 1011.4
20260905021005 76 101 0.0 0.0 0.00 0.69 0.00 94 1011.3
20260905020504 76 101 0.0 1.0 0.00 0.69 0.00 95 1011.2
20260905020004 76 101 0.0 1.0 0.00 0.69 0.00 95 1011.4
20260905015503 76 79 0.0 1.0 0.00 0.69 0.00 95 1011.5
20260905015004 76 79 0.0 1.0 0.00 0.69 0.00 95 1011.5
20260905014504 76 79 0.0 1.0 0.00 0.69 0.00 95 1011.5
20260905013504 76 79 0.0 0.0 0.00 0.69 0.00 95 1011.5
20260905013004 76 79 0.0 0.0 0.00 0.69 0.00 95 1011.5
20260905012504 76 79 0.0 1.0 0.00 0.69 0.00 95 1011.4
20260905012003 76 79 0.0 1.0 0.00 0.69 0.00 95 1011.4
20260905011504 76 79 0.0 1.0 0.00 0.69 0.00 95 1011.4
20260905011004 76 79 0.0 0.0 0.00 0.69 0.00 95 1011.5
20260905010504 76 79 0.0 0.0 0.00 0.69 0.00 95 1011.4
20260905005504 76 79 0.0 0.0 0.00 0.69 0.00 94 1011.3
20260905005004 76 79 0.0 0.0 0.00 0.69 0.00 94 1011.3
20260905004504 76 79 0.0 0.0 0.00 0.69 0.00 94 1011.3
20260905004004 76 79 0.0 0.0 0.00 0.69 0.00 94 1011.3
20260905003504 76 79 0.0 0.0 0.00 0.69 0.00 94 1011.4
20260905003004 76 79 0.0 0.0 0.00 0.69 0.00 94 1011.4
20260905002504 77 79 0.0 0.0 0.00 0.69 0.00 94 1011.3
20260905002004 77 79 0.0 0.0 0.00 0.69 0.00 94 1011.3
20260905001505 77 79 0.0 0.0 0.00 0.69 0.00 93 1011.1
20260905001004 77 79 0.0 0.0 0.00 0.69 0.00 93 1010.9
20260905000504 77 79 0.0 0.0 0.00 0.69 0.00 93 1010.8
20260905000003 77 79 0.0 0.0 0.00 0.69 0.00 93 1010.8
20260904235504 78 79 0.0 0.0 0.00 0.69 0.00 92 1010.8
20260904235004 78 79 0.0 0.0 0.00 0.69 0.00 92 1010.6
20260904234504 78 79 0.0 0.0 0.00 0.69 0.00 92 1010.6
20260904234005 78 79 0.0 0.0 0.00 0.69 0.00 91 1010.6
20260904233504 78 79 0.0 0.0 0.00 0.69 0.00 91 1010.8
20260904233004 79 79 0.0 0.0 0.00 0.69 0.00 90 1010.8
20260904232504 79 79 0.0 0.0 0.00 0.69 0.00 89 1010.8
20260904232004 79 79 0.0 0.0 0.00 0.69 0.00 88 1010.9
20260904231504 80 79 0.0 0.0 0.00 0.69 0.00 88 1011.0
20260904231004 80 79 0.0 0.0 0.00 0.69 0.00 87 1011.0
20260904230504 80 79 0.0 0.0 0.00 0.69 0.00 87 1011.0
20260904225504 80 79 0.0 0.0 0.00 0.69 0.00 85 1011.4
20260904225004 81 79 0.0 0.0 0.00 0.69 0.00 85 1011.6
20260904224504 81 79 0.0 0.0 0.00 0.69 0.00 84 1011.6
20260904224004 81 79 0.0 0.0 0.00 0.69 0.00 84 1011.7
20260904223504 81 79 0.0 0.0 0.00 0.69 0.00 83 1011.8
20260904223004 82 79 0.0 0.0 0.00 0.69 0.00 83 1011.8
20260904222504 82 79 0.0 0.0 0.00 0.69 0.00 82 1011.9
20260904222004 82 79 0.0 0.0 0.00 0.69 0.00 82 1011.8
20260904221504 82 79 0.0 0.0 0.00 0.69 0.00 81 1011.8
20260904220504 83 118 0.0 1.0 0.00 0.69 0.00 80 1011.9
20260904215504 83 71 0.0 1.0 0.00 0.69 0.00 80 1011.8
20260904214504 83 43 0.0 2.0 0.00 0.69 0.00 80 1011.8
20260904214004 84 269 0.0 2.0 0.00 0.69 0.00 79 1011.8
20260904213503 84 7 0.0 2.0 0.00 0.69 0.00 79 1011.7
20260904213005 85 34 0.0 1.0 0.00 0.69 0.00 79 1011.5
20260904212504 85 328 0.0 3.0 0.00 0.69 0.00 78 1011.3
20260904211004 86 47 0.0 3.0 0.00 0.69 0.00 77 1011.5
20260904210504 86 13 0.0 5.0 0.00 0.69 0.00 76 1011.6
20260904210004 86 334 2.0 5.0 0.00 0.69 0.00 75 1011.6
20260904205504 86 13 2.0 5.0 0.00 0.69 0.00 75 1011.7
20260904205004 86 2 0.0 6.0 0.00 0.69 0.00 76 1011.7
20260904204503 86 25 2.0 6.0 0.00 0.69 0.00 75 1011.8
20260904203505 86 29 2.0 6.0 0.00 0.69 0.00 74 1011.6
20260904203004 87 35 1.0 5.0 0.00 0.69 0.00 74 1011.7
20260904202504 87 28 0.0 5.0 0.00 0.69 0.00 75 1011.6
20260904202004 87 21 2.0 5.0 0.00 0.69 0.00 74 1011.5
20260904201504 87 7 1.0 5.0 0.00 0.69 0.00 74 1011.5
20260904201004 87 22 0.0 5.0 0.00 0.69 0.00 74 1011.5
20260904200504 87 356 1.0 3.0 0.00 0.69 0.00 74 1011.6
20260904195503 86 0 0.0 5.0 0.00 0.69 0.00 74 1011.7
20260904195004 86 15 1.0 5.0 0.00 0.69 0.00 76 1011.8
20260904193504 86 1 0.0 5.0 0.00 0.69 0.00 74 1012.0
20260904193004 86 32 1.0 5.0 0.00 0.69 0.00 74 1012.0
20260904192504 86 338 1.0 5.0 0.00 0.69 0.00 75 1011.9
20260904192004 86 5 1.0 5.0 0.00 0.69 0.00 75 1012.1
20260904191504 86 355 1.0 5.0 0.00 0.69 0.00 74 1012.1
20260904191004 86 17 1.0 6.0 0.00 0.69 0.00 72 1012.2
20260904190504 87 16 1.0 6.0 0.00 0.69 0.00 72 1012.3
20260904190004 87 39 2.0 6.0 0.00 0.69 0.00 73 1012.3
20260904185504 88 0 0.0 3.0 0.00 0.69 0.00 73 1012.3
20260904185004 87 39 0.0 3.0 0.00 0.69 0.00 75 1012.4
20260904184003 87 240 0.0 3.0 0.00 0.69 0.00 73 1012.5
20260904183503 87 352 0.0 3.0 0.00 0.69 0.00 73 1012.4
20260904183004 88 162 1.0 3.0 0.00 0.69 0.00 71 1012.3
20260904182503 88 47 1.0 3.0 0.00 0.69 0.00 71 1012.3
20260904182005 88 12 1.0 3.0 0.00 0.69 0.00 73 1012.5
20260904181504 88 319 1.0 3.0 0.00 0.69 0.00 71 1012.5
20260904181004 88 111 1.0 3.0 0.00 0.69 0.00 71 1012.5
20260904180504 88 30 0.0 3.0 0.00 0.69 0.00 74 1012.6
20260904175503 88 76 0.0 2.0 0.00 0.69 0.00 74 1012.7
20260904174504 87 7 1.0 3.0 0.00 0.69 0.00 74 1012.7
20260904173504 87 330 1.0 6.0 0.00 0.69 0.00 73 1012.6
20260904173004 87 341 1.0 6.0 0.00 0.69 0.00 75 1012.7
20260904172504 87 9 1.0 6.0 0.00 0.69 0.00 75 1012.7
20260904172004 86 1 1.0 6.0 0.00 0.69 0.00 75 1012.8
20260904171504 86 19 0.0 3.0 0.00 0.69 0.00 77 1012.8
20260904171004 87 347 0.0 6.0 0.00 0.69 0.00 76 1012.9
20260904170503 87 356 0.0 6.0 0.00 0.69 0.00 76 1012.8
20260904170003 86 11 2.0 6.0 0.00 0.69 0.00 75 1012.9
20260904165504 87 41 1.0 3.0 0.00 0.69 0.00 77 1012.8
20260904165004 86 143 1.0 3.0 0.00 0.69 0.00 77 1012.9
20260904164004 85 21 0.0 5.0 0.00 0.69 0.00 77 1013.0
20260904163504 85 304 1.0 6.0 0.00 0.69 0.00 77 1013.1
20260904162504 86 9 1.0 5.0 0.00 0.69 0.00 78 1013.1
20260904162005 85 78 1.0 5.0 0.00 0.69 0.00 79 1013.1
20260904161504 84 346 1.0 6.0 0.00 0.69 0.00 78 1013.2
20260904161005 85 356 2.0 6.0 0.00 0.69 0.00 80 1013.2
20260904160505 84 45 1.0 3.0 0.00 0.69 0.00 80 1013.3
20260904160004 84 286 0.0 6.0 0.00 0.69 0.00 81 1013.2
20260904155504 84 333 2.0 6.0 0.00 0.69 0.69 81 1013.3
20260904155005 84 23 2.0 5.0 0.00 0.69 0.69 80 1013.2
20260904154004 83 345 0.0 7.0 0.00 0.69 0.69 83 1013.0
20260904153504 83 6 1.0 7.0 0.00 0.69 0.69 84 1013.0
20260904152004 82 17 2.0 7.0 0.00 0.69 0.69 84 1013.3
20260904151503 82 34 1.0 3.0 0.00 0.69 0.69 84 1013.3
20260904151004 82 24 2.0 7.0 0.00 0.69 0.69 84 1013.2
20260904150504 81 16 2.0 7.0 0.00 0.69 0.69 84 1013.3
20260904145004 81 4 3.0 7.0 0.00 0.69 0.69 84 1013.4
20260904144504 82 13 1.0 6.0 0.00 0.69 0.69 85 1013.4
20260904143504 81 8 1.0 12.0 0.00 0.69 0.69 86 1013.4
20260904143004 80 45 4.0 12.0 0.00 0.69 0.69 86 1013.4
20260904142504 81 346 0.0 5.0 0.00 0.69 0.69 88 1013.4
20260904142004 80 350 2.0 6.0 0.00 0.69 0.69 89 1013.4
20260904141504 80 265 0.0 6.0 0.00 0.69 0.69 89 1013.4
20260904141004 79 358 1.0 7.0 0.00 0.69 0.69 89 1013.3
20260904140504 79 11 0.0 7.0 0.00 0.69 0.69 91 1013.2
20260904140004 79 341 1.0 5.0 0.00 0.69 0.69 91 1013.2
20260904135504 79 348 2.0 5.0 0.00 0.69 0.69 91 1013.1
20260904135004 79 264 1.0 5.0 0.00 0.69 0.69 93 1013.0
20260904134504 78 349 1.0 5.0 0.00 0.69 0.69 93 1013.0
20260904134005 77 303 1.0 6.0 0.00 0.69 0.69 94 1013.0
20260904133504 77 343 1.0 6.0 0.00 0.69 0.69 95 1013.1
20260904133004 77 2 1.0 5.0 0.00 0.69 0.69 96 1013.2
20260904132504 76 311 0.0 3.0 0.00 0.69 0.69 96 1013.2
20260904132004 76 315 1.0 3.0 0.00 0.69 0.69 96 1013.3
20260904131504 76 316 0.0 3.0 0.00 0.69 0.69 97 1013.2
20260904131003 76 31 1.0 3.0 0.00 0.69 0.69 97 1013.3
20260904130503 76 355 1.0 3.0 0.00 0.69 0.69 97 1013.2
20260904130004 76 2 0.0 3.0 0.00 0.69 0.69 97 1013.2
20260904125505 75 335 1.0 5.0 0.00 0.69 0.69 97 1013.3
20260904125004 75 2 1.0 5.0 0.00 0.69 0.69 97 1013.4
20260904124504 75 26 0.0 5.0 0.00 0.69 0.69 98 1013.3
20260904123504 75 117 0.0 2.0 0.00 0.69 0.69 98 1013.2
20260904123004 74 347 0.0 2.0 0.00 0.69 0.69 98 1013.3
20260904122504 74 89 0.0 2.0 0.00 0.69 0.69 98 1013.3
20260904121004 73 97 1.0 3.0 0.00 0.69 0.69 98 1013.3
20260904120504 73 36 0.0 2.0 0.00 0.69 0.69 98 1013.3
20260904120004 73 252 0.0 1.0 0.00 0.69 0.69 98 1013.2
20260904115505 73 50 0.0 3.0 0.00 0.69 0.69 98 1013.2
20260904115004 73 319 0.0 3.0 0.00 0.69 0.69 98 1013.2
20260904114503 73 262 0.0 3.0 0.00 0.69 0.69 98 1013.1
20260904113504 73 75 0.0 3.0 0.00 0.69 0.69 98 1013.3
20260904113004 73 144 0.0 3.0 0.00 0.69 0.69 98 1013.3
20260904112504 73 223 1.0 3.0 0.00 0.69 0.69 98 1013.4
20260904110504 72 87 0.0 3.0 0.00 0.69 0.69 98 1013.1
20260904110004 72 336 0.0 2.0 0.00 0.69 0.69 98 1013.0
20260904104504 72 73 0.0 2.0 0.00 0.69 0.69 98 1012.6
20260904104004 71 117 0.0 2.0 0.00 0.69 0.69 98 1012.4
20260904103504 71 125 0.0 1.0 0.00 0.69 0.69 98 1012.4
20260904103005 71 128 0.0 1.0 0.00 0.69 0.69 98 1012.3
20260904102504 72 220 0.0 1.0 0.00 0.69 0.69 98 1012.3
20260904101504 72 157 1.0 2.0 0.00 0.69 0.69 98 1012.2
20260904101004 72 135 0.0 2.0 0.00 0.69 0.69 98 1012.4
20260904100504 72 132 0.0 3.0 0.00 0.69 0.69 98 1012.5
20260904100004 72 141 1.0 3.0 0.00 0.69 0.69 98 1012.4
20260904095504 72 117 0.0 1.0 0.00 0.69 0.69 98 1012.5
20260904095004 72 117 0.0 1.0 0.00 0.69 0.69 98 1012.4
20260904094504 72 117 0.0 1.0 0.00 0.69 0.69 98 1012.4